Weather History for Sterling Muni, Sterling, CO, CO

Change the Weather History Date:

Sunday, March 16, 2014

  Actual Average Record
Temperature  
Mean Temperature 47 °F -  
Max Temperature 64 °F 51 °F 64 °F (2014)
Min Temperature 30 °F 26 °F 30 °F (2014)
Degree Days  
Heating Degree Days 18    
Moisture  
Dew Point 30 °F    
Average Humidity 62    
Maximum Humidity 100    
Minimum Humidity 21    
Precipitation  
Precipitation 0.00 in - - ()
Sea Level Pressure  
Sea Level Pressure 30.14 in    
Wind  
Wind Speed 5 mph (NW)    
Max Wind Speed 16 mph    
Max Gust Speed 25 mph    
Visibility 10 miles    
Events      
Averages and records for this station are not official NWS values.
T = Trace of Precipitation, MM = Missing Value Source: NWS Daily Summary

Daily Weather History Graph

Daily Weather History Graph

Search for Another Location

Airport:

Trip Planner

Search our weather history database for the weather conditions in past years. The results will help you decide how hot, cold, wet, or windy it might be!

Date:

Astronomy

Mar. 16, 2014 Rise Set
Actual Time 7:02 AM MDT 7:00 PM MDT
Civil Twilight 6:35 AM MDT 7:28 PM MDT
Nautical Twilight 6:03 AM MDT 8:00 PM MDT
Astronomical Twilight 5:31 AM MDT 8:32 PM MDT
Moon 7:20 PM MDT (3/16) 6:47 AM MDT (3/16)
Length of Visible Light 12h 52m
Length of Day
11h 58m
Full, 100% of the Moon is Illuminated
Mar 16
Full
Mar 23
Last Quarter
Mar 30
New
Apr 7
First Quarter
Apr 15
Full

Hourly Weather History & Observations

Time (MDT) Temp. Windchill Dew Point Humidity Pressure Visibility Wind Dir Wind Speed Gust Speed Precip Events Conditions
12:15 AM 33.8 °F 28.6 °F 32.0 °F 93% 30.30 in 10.0 mi NNE 5.8 mph - N/A   Mostly Cloudy
12:35 AM 33.8 °F - 32.0 °F 93% 30.30 in 10.0 mi Calm Calm - N/A   Mostly Cloudy
12:55 AM 32.0 °F - 32.0 °F 100% 30.31 in 10.0 mi Calm Calm - N/A   Overcast
1:15 AM 33.8 °F - 32.0 °F 93% 30.30 in 10.0 mi Calm Calm - N/A   Overcast
1:35 AM 32.0 °F - 32.0 °F 100% 30.31 in 10.0 mi Calm Calm - N/A   Overcast
1:55 AM 32.0 °F - 32.0 °F 100% 30.32 in 10.0 mi Calm Calm - N/A   Overcast
2:15 AM 33.8 °F 30.8 °F 32.0 °F 93% 30.32 in 10.0 mi NNE 3.5 mph - N/A   Overcast
2:35 AM 33.8 °F - 32.0 °F 93% 30.31 in 10.0 mi Calm Calm - N/A   Overcast
2:55 AM 33.8 °F 30.8 °F 32.0 °F 93% 30.30 in 10.0 mi NE 3.5 mph - N/A   Overcast
3:15 AM 33.8 °F 30.8 °F 32.0 °F 93% 30.30 in 10.0 mi ENE 3.5 mph - N/A   Mostly Cloudy
3:35 AM 32.0 °F 26.4 °F 32.0 °F 100% 30.27 in 10.0 mi East 5.8 mph - N/A   Scattered Clouds
3:55 AM 32.0 °F - 30.2 °F 93% 30.28 in 10.0 mi Calm Calm - N/A   Scattered Clouds
4:15 AM 32.0 °F - 30.2 °F 93% 30.29 in 10.0 mi Calm Calm - N/A   Mostly Cloudy
4:35 AM 32.0 °F - 32.0 °F 100% 30.29 in 10.0 mi Calm Calm - N/A   Overcast
4:55 AM 32.0 °F - 32.0 °F 100% 30.29 in 10.0 mi Calm Calm - N/A   Overcast
5:15 AM 32.0 °F - 32.0 °F 100% 30.28 in 10.0 mi Calm Calm - N/A   Overcast
5:35 AM 32.0 °F 27.5 °F 32.0 °F 100% 30.27 in 10.0 mi SW 4.6 mph - N/A   Overcast
5:55 AM 32.0 °F 27.5 °F 32.0 °F 100% 30.26 in 10.0 mi SSW 4.6 mph - N/A   Overcast
6:15 AM 32.0 °F - 32.0 °F 100% 30.27 in 10.0 mi Calm Calm - N/A   Overcast
6:35 AM 32.0 °F - 32.0 °F 100% 30.27 in 10.0 mi Calm Calm - N/A   Overcast
6:55 AM 32.0 °F - 32.0 °F 100% 30.27 in 10.0 mi Calm Calm - N/A   Overcast
7:15 AM 32.0 °F - 32.0 °F 100% 30.28 in 10.0 mi Calm Calm - N/A   Overcast
7:35 AM 32.0 °F 28.7 °F 30.2 °F 93% 30.29 in 10.0 mi WSW 3.5 mph - N/A   Overcast
7:55 AM 30.2 °F - 30.2 °F 100% 30.29 in 10.0 mi Calm Calm - N/A   Overcast
8:15 AM 32.0 °F 28.7 °F 30.2 °F 93% 30.29 in 10.0 mi South 3.5 mph - N/A   Mostly Cloudy
8:35 AM 32.0 °F 27.5 °F 32.0 °F 100% 30.29 in 10.0 mi South 4.6 mph - N/A   Scattered Clouds
8:55 AM 33.8 °F 29.6 °F 32.0 °F 93% 30.28 in 10.0 mi SSW 4.6 mph - N/A   Clear
9:15 AM 35.6 °F 30.7 °F 32.0 °F 87% 30.27 in 10.0 mi SSW 5.8 mph - N/A   Clear
9:35 AM 37.4 °F 30.8 °F 32.0 °F 81% 30.26 in 10.0 mi SSW 9.2 mph - N/A   Clear
9:55 AM 39.2 °F 33.6 °F 32.0 °F 75% 30.25 in 10.0 mi SW 8.1 mph - N/A   Clear
10:15 AM 41.0 °F 35.8 °F 32.0 °F 70% 30.25 in 10.0 mi WSW 8.1 mph - N/A   Clear
10:35 AM 42.8 °F 37.0 °F 32.0 °F 66% 30.24 in 10.0 mi WSW 10.4 mph - N/A   Clear
10:55 AM 44.6 °F 39.7 °F 32.0 °F 61% 30.23 in 10.0 mi SW 9.2 mph - N/A   Clear
11:15 AM 46.4 °F 42.9 °F 32.0 °F 57% 30.22 in 10.0 mi SW 6.9 mph - N/A   Clear
11:35 AM 48.2 °F - 32.0 °F 54% 30.21 in 10.0 mi SW 6.9 mph - N/A   Clear
11:55 AM 50.0 °F - 32.0 °F 50% 30.19 in 10.0 mi SW 6.9 mph - N/A   Clear
12:15 PM 51.8 °F - 30.2 °F 44% 30.17 in 10.0 mi West 6.9 mph - N/A   Clear
12:35 PM 53.6 °F - 28.4 °F 38% 30.16 in 10.0 mi NW 6.9 mph - N/A   Clear
12:55 PM 53.6 °F - 28.4 °F 38% 30.14 in 10.0 mi North 6.9 mph - N/A   Clear
1:15 PM 55.4 °F - 30.2 °F 38% 30.12 in 10.0 mi West 4.6 mph - N/A   Clear
1:35 PM 57.2 °F - 28.4 °F 33% 30.10 in 10.0 mi East 3.5 mph - N/A   Clear
1:55 PM 59.0 °F - 30.2 °F 34% 30.08 in 10.0 mi Calm Calm - N/A   Clear
2:15 PM 60.8 °F - 30.2 °F 31% 30.06 in 10.0 mi Calm Calm - N/A   Clear
2:35 PM 62.6 °F - 28.4 °F 27% 30.06 in 10.0 mi NNW 10.4 mph - N/A   Clear
2:55 PM 64.4 °F - 28.4 °F 26% 30.04 in 10.0 mi North 13.8 mph 20.7 mph N/A   Clear
3:15 PM 64.4 °F - 26.6 °F 24% 30.03 in 10.0 mi North 10.4 mph - N/A   Clear
3:35 PM 64.4 °F - 26.6 °F 24% 30.02 in 10.0 mi North 16.1 mph 23.0 mph N/A   Clear
3:55 PM 64.4 °F - 23.0 °F 21% 30.01 in 10.0 mi NNW 16.1 mph 25.3 mph N/A   Clear
4:15 PM 64.4 °F - 24.8 °F 22% 30.01 in 10.0 mi North 15.0 mph 20.7 mph N/A   Clear
4:35 PM 64.4 °F - 24.8 °F 22% 29.98 in 10.0 mi North 11.5 mph - N/A   Clear
4:55 PM 64.4 °F - 26.6 °F 24% 29.99 in 10.0 mi North 13.8 mph 19.6 mph N/A   Clear
5:15 PM 64.4 °F - 26.6 °F 24% 29.97 in 10.0 mi North 8.1 mph - N/A   Clear
5:35 PM 64.4 °F - 23.0 °F 21% 29.98 in 10.0 mi North 13.8 mph 18.4 mph N/A   Clear
5:55 PM 64.4 °F - 23.0 °F 21% 29.97 in 10.0 mi North 16.1 mph - N/A   Clear
6:15 PM 62.6 °F - 24.8 °F 24% 29.97 in 10.0 mi North 12.7 mph 18.4 mph N/A   Clear
6:35 PM 59.0 °F - 26.6 °F 29% 29.96 in 10.0 mi North 9.2 mph - N/A   Clear
6:55 PM 55.4 °F - 26.6 °F 33% 29.95 in 10.0 mi North 5.8 mph - N/A   Clear
7:15 PM 53.6 °F - 26.6 °F 35% 29.95 in 10.0 mi NNE 5.8 mph - N/A   Clear
7:35 PM 51.8 °F - 28.4 °F 41% 29.95 in 10.0 mi NNW 11.5 mph - N/A   Clear
7:55 PM 55.4 °F - 28.4 °F 36% 29.95 in 10.0 mi NNW 11.5 mph - N/A   Clear
8:15 PM 55.4 °F - 30.2 °F 38% 29.96 in 10.0 mi NNW 13.8 mph - N/A   Clear
8:35 PM 53.6 °F - 30.2 °F 41% 29.96 in 10.0 mi NW 9.2 mph - N/A   Clear
8:55 PM 50.0 °F - 30.2 °F 47% 29.96 in 10.0 mi NNW 6.9 mph - N/A   Clear
9:15 PM 46.4 °F 43.5 °F 30.2 °F 53% 29.96 in 10.0 mi NNW 5.8 mph - N/A   Clear
9:35 PM 44.6 °F - 30.2 °F 57% 29.95 in 10.0 mi Calm Calm - N/A   Clear
9:55 PM 42.8 °F 39.3 °F 30.2 °F 61% 29.95 in 10.0 mi West 5.8 mph - N/A   Clear
10:15 PM 46.4 °F 41.9 °F 30.2 °F 53% 29.94 in 10.0 mi WNW 9.2 mph - N/A   Clear
10:35 PM 53.6 °F - 26.6 °F 35% 29.93 in 10.0 mi WNW 13.8 mph - N/A   Clear
10:55 PM 50.0 °F - 26.6 °F 40% 29.92 in 10.0 mi WNW 8.1 mph - N/A   Clear
11:15 PM 50.0 °F - 26.6 °F 40% 29.91 in 10.0 mi West 8.1 mph - N/A   Clear
11:35 PM 44.6 °F 39.2 °F 28.4 °F 53% 29.90 in 10.0 mi SW 10.4 mph - N/A   Clear
11:55 PM 44.6 °F 40.2 °F 28.4 °F 53% 29.89 in 10.0 mi WSW 8.1 mph - N/A   Clear